QPF
0.00 0.00 0.00 0.00 0.00 0.00 0.00 0.00 0.00 0.00 0.00 0.00 0.00 0.00 0.00 0.00 0.00 0.00 0.00 0.00 0.00 0.00
0.00 0.00 0.00 0.00 0.00 0.00 0.00 0.00 0.00 0.00 0.00 0.00 0.00 0.00 0.00 0.00 0.00 0.00 0.00 0.00 0.00 0.00
0.00 0.00 0.00 0.00 0.00 0.00 0.00 0.00 0.00 0.00 0.00 0.00 0.00 0.00 0.00 0.00 0.00 0.00 0.00 0.00 0.00 0.00
0.00 0.00 0.00 0.00 0.00 0.00 0.00 0.00 0.00 0.00 0.00 0.00 0.00 0.00 0.00 0.00 0.00 0.00 0.00 0.00 0.00 0.00
0.00 0.00 0.00 0.00 0.00 0.00 0.00 0.00 0.00 0.00 0.00 0.00 0.00 0.00 0.00 0.00 0.00 0.00 0.00 0.00 0.00 0.00
0.00 0.00 0.00 0.00 0.00 0.00 0.00 0.00 0.00 0.00 0.00 0.00 0.00 0.00 0.00 0.00 0.00 0.00 0.00 0.00 0.00 0.00
0.00 0.00 0.00 0.00 0.00 0.00 0.00 0.00 0.00 0.00 0.00 0.00 0.00 0.00 0.00 0.00 0.00 0.00 0.00 0.00 0.00 0.00
0.00 0.00 0.00 0.00 0.00 0.00 0.00 0.00 0.00 0.00 0.00 0.00 0.00 0.00 0.00 0.00 0.00 0.00 0.00 0.00 0.00 0.00
0.00 0.00 0.00 0.00 0.00 0.00 0.00 0.00 0.00 0.00 0.00 0.00 0.00 0.00 0.00 0.00 0.00 0.00 0.00 0.00 0.00 0.00
0.00 0.00 0.00 0.00 0.00 0.00 0.00 0.00 0.00 0.00 0.00 0.00 0.00 0.00 0.00 0.00 0.00 0.00 0.00 0.00 0.00 0.00
0.00 0.00 0.00 0.00 0.00 0.00 0.00 0.00 0.00 0.00 0.00 0.00 0.00 0.00 0.00 0.00 0.00 0.00 0.00 0.00 0.00 0.00
0.00 0.00 0.00 0.00 0.00 0.00 0.00 0.00 0.00 0.00 0.00 0.00 0.00 0.00 0.00 0.00 0.00 0.00 0.00 0.00 0.00 0.00
0.00 0.00 0.00 0.00 0.00 0.00 0.00 0.00 0.00 0.00 0.00 0.00 0.00 0.00 0.00 0.00 0.00 0.00 0.00 0.00 0.00 0.00
0.00 0.00 0.00 0.00 0.00 0.00 0.00 0.00 0.00 0.00 0.00 0.00 0.00 0.00 0.00 0.00 0.00 0.00 0.00 0.00 0.00 0.00
MSLP
1019.77 1019.76 1019.90 1020.03 1020.09 1020.13 1020.11 1020.08 1020.04 1019.90 1019.76 1019.62 1019.41 1019.07 1018.60 1018.34 1018.25 1018.12 1018.11 1018.13 1018.31 1018.38
1020.24 1020.29 1020.34 1020.44 1020.52 1020.60 1020.60 1020.35 1020.26 1020.16 1020.01 1019.83 1019.55 1019.23 1018.85 1018.74 1018.64 1018.49 1018.41 1018.30 1018.27 1018.48
1020.67 1020.79 1020.80 1020.83 1020.89 1020.96 1020.91 1020.78 1020.57 1020.39 1020.27 1020.10 1019.87 1019.57 1019.27 1019.20 1019.17 1019.07 1019.07 1019.06 1019.04 1019.24
1020.80 1020.97 1021.09 1021.11 1021.14 1021.08 1021.02 1020.95 1020.84 1020.69 1020.49 1020.38 1020.18 1019.95 1019.76 1019.67 1019.70 1019.78 1019.84 1019.84 1019.89 1020.08
1020.92 1021.11 1021.22 1021.41 1021.40 1021.29 1021.18 1021.13 1021.08 1020.99 1020.85 1020.78 1020.65 1020.58 1020.52 1020.30 1020.37 1020.41 1020.45 1020.66 1020.62 1020.78
1021.15 1021.45 1021.21 1021.60 1021.68 1021.56 1021.43 1021.37 1021.27 1021.31 1021.20 1021.14 1021.05 1020.89 1020.92 1020.88 1020.90 1021.03 1021.09 1021.30 1021.36 1021.33
1021.27 1021.60 1021.36 1021.43 1021.79 1021.79 1021.72 1021.49 1021.76 1021.67 1021.52 1021.47 1021.45 1021.29 1021.21 1021.46 1021.46 1021.73 1021.69 1021.59 1021.89 1021.89
1021.33 1021.40 1021.24 1021.47 1021.60 1021.86 1021.77 1021.53 1021.94 1021.98 1021.89 1021.86 1021.73 1021.54 1021.60 1021.85 1021.85 1022.22 1021.99 1022.20 1022.33 1022.39
1021.18 1021.28 1021.46 1021.56 1021.48 1021.94 1021.87 1021.82 1022.17 1021.93 1022.07 1022.36 1022.04 1021.86 1021.90 1021.87 1022.27 1022.46 1022.53 1022.90 1023.07 1023.02
1021.02 1021.23 1021.65 1021.65 1021.64 1021.86 1022.06 1022.18 1022.52 1022.21 1022.49 1022.61 1022.63 1022.33 1022.25 1022.34 1022.75 1022.97 1023.34 1023.54 1023.53 1023.61
1020.86 1021.25 1021.65 1021.70 1021.77 1022.07 1022.31 1022.61 1022.62 1022.65 1022.73 1023.05 1022.95 1022.84 1022.69 1023.04 1023.32 1023.72 1023.98 1023.97 1023.94 1023.92
1020.72 1021.16 1021.52 1021.70 1021.93 1022.21 1022.56 1022.75 1022.97 1023.32 1023.35 1023.57 1023.30 1023.03 1023.14 1023.55 1023.95 1024.19 1024.27 1024.27 1024.20 1023.96
1020.62 1020.97 1021.36 1021.65 1022.02 1022.42 1022.76 1022.99 1023.37 1023.66 1023.71 1023.62 1023.39 1023.20 1023.39 1023.90 1023.99 1024.13 1024.26 1024.41 1024.33 1023.86
1020.54 1020.83 1021.23 1021.71 1022.14 1022.57 1023.04 1023.36 1023.68 1023.77 1023.70 1023.61 1023.61 1023.32 1023.21 1023.33 1023.68 1023.83 1024.07 1024.32 1024.42 1024.32
Thickness
5613 5615 5616 5616 5617 5617 5617 5618 5617 5617 5618 5618 5618 5619 5620 5622 5621 5619 5616 5613 5609 5606
5598 5600 5602 5602 5603 5603 5603 5606 5606 5606 5607 5607 5608 5609 5610 5609 5607 5605 5603 5601 5599 5594
5586 5586 5587 5589 5590 5589 5590 5592 5594 5596 5596 5596 5596 5596 5596 5594 5591 5590 5588 5585 5582 5578
5574 5575 5575 5576 5576 5578 5579 5580 5581 5582 5583 5583 5583 5582 5581 5579 5577 5574 5571 5568 5565 5560
5561 5562 5563 5563 5564 5566 5567 5568 5568 5568 5569 5569 5568 5566 5564 5564 5561 5558 5555 5551 5549 5546
5546 5546 5552 5550 5551 5553 5555 5555 5556 5555 5555 5554 5553 5553 5551 5549 5547 5543 5540 5536 5534 5532
5534 5533 5539 5540 5538 5540 5541 5543 5541 5541 5541 5540 5539 5539 5538 5533 5532 5528 5526 5525 5520 5518
5524 5525 5529 5529 5530 5528 5530 5533 5528 5527 5527 5526 5526 5527 5524 5521 5519 5514 5515 5511 5508 5505
5515 5516 5516 5517 5520 5517 5518 5519 5515 5519 5515 5511 5514 5513 5512 5512 5507 5504 5502 5497 5493 5491
5507 5507 5504 5505 5506 5506 5506 5506 5502 5507 5504 5501 5500 5500 5500 5499 5495 5493 5487 5484 5482 5479
5499 5498 5495 5496 5497 5496 5495 5493 5494 5494 5493 5489 5489 5488 5489 5487 5483 5478 5474 5472 5470 5467
5490 5489 5488 5488 5488 5487 5485 5484 5482 5479 5478 5476 5478 5479 5479 5476 5471 5467 5464 5462 5460 5460
5483 5482 5481 5481 5480 5477 5475 5474 5472 5469 5467 5469 5470 5471 5470 5466 5463 5461 5458 5454 5453 5453
5476 5475 5474 5473 5471 5469 5466 5463 5461 5461 5461 5462 5462 5463 5463 5462 5459 5456 5453 5448 5446 5444